Location: Vancouver
(49.2500°N, 123.1330°W)
Time: 11:49:54
(UTC-08:00)

ISS - Visible Passes

Search period start: 23 November 2014 00:00
Search period end: 03 December 2014 00:00
Orbit: 408 x 417 km, 51.6° (Epoch: 23 November)

Date Brightness Start Highest point End Pass type
(mag) Time Alt. Az. Time Alt. Az. Time Alt. Az.
23 Nov -3.2 05:25:17 75° ENE 05:25:17 75° ENE 05:28:24 10° ESE visible
24 Nov -0.4 04:37:38 18° E 04:37:38 18° E 04:38:36 10° E visible
24 Nov -2.6 06:10:28 25° W 06:11:54 40° SSW 06:15:01 10° SE visible
25 Nov -2.6 05:22:49 48° SSE 05:22:49 48° SSE 05:25:27 10° SE visible
25 Nov -0.9 06:56:42 10° WSW 06:58:18 13° SW 06:59:54 10° SSW visible
26 Nov -0.1 04:35:10 14° ESE 04:35:10 14° ESE 04:35:41 10° ESE visible
26 Nov -1.6 06:07:59 19° WSW 06:08:40 20° SW 06:11:10 10° S visible
27 Nov -1.3 05:20:21 21° S 05:20:21 21° S 05:21:53 10° SSE visible
